Back to catalog

STARLINK-33534

AliveCommunicationsVLEO
NORAD 63499·PAYLOAD·🇺🇸 United States

Launched Apr 7, 2025 from Vandenberg Space Force Base

Loading…

Next Passes (next 24 hours)

TLE

FreshSource: CelesTrak SupGP

Epoch: Sep 14, 2026, 14:02 UTC

1 63499C 25071G   26257.58520833 -.00060311  00000+0 -19402-2 0  2579
2 63499  53.1592 341.1046 0001246  84.7522 168.7852 15.31719794    13

Track STARLINK-33534 in real time with AllMySat

Download on the App Store